COSMOS 1000

Satellite information

Favourite Embed

Satellite Type and Status

PAYLOADIN ORBIT

Key statistics

Satellite COSMOS 1000 at a glance.

Uptime

17206

Days in orbit

Revolutions

≈ 13.8

Per day

Orbit

LEO

Low Earth Orbit

Inclination

82.9

Latest

Satellite identification and parameters

Extended collection of information and parameters for COSMOS 1000.

Object identification

Identified? True

Debris? False

Object name: COSMOS 1000

International designator: 1978-034A

Object number (NORAD): 10776

Object ID (CCSDS): 10776

Country: COMMONWEALTH OF INDEPENDENT STATES (CIS)

Current information (Y/N): Y

RCS size: LARGE

Orbital parameters

Period: 104.684 minutes

Inclination: 82.94 deg

SMA: 7357.781 km

Apoapsis: 1004.886 km

Periapsis: 954.407 km

RAAN: 288.3004 deg

Eccentricy: 0.0034303

Argument of periapsis: 192.937 deg

Mean anomaly: 230.8751 deg

Mean motion: 13.75569267 rev/day

Mean motion (dot): 0.00000092 rev/day2

B* drag term: 0.000079238 1/REarth

Two-line elements (TLE)

Creation date: May 9, 2025, 2:46 a.m.

Reference frame: TEME

Reference center: EARTH

Epoch: May 8, 2025, 12:47 p.m. UTC

TLE line 0: 0 COSMOS 1000

TLE line 1: 1 10776U 78034A 25128.53299640 .00000092 00000-0 79238-4 0 9993

TLE line 2: 2 10776 82.9400 288.3004 0034303 192.9370 230.8751 13.75569267363734

Live tracking on map

Real-time ground track for satellite COSMOS 1000.

In-orbit conjunctions

A list of the most updated potential collisions computed for object COSMOS 1000.

Target Orbit TCA Probability of collision Miss distance Type
ATLAS CENTAUR 2 R/B LEO 2025-02-12 04:50:52 0.00238311 611.0 (m) ROCKET BODY
FENGYUN 1C DEB SSO 2025-01-06 08:56:09 0.000101438 238.0 (m) DEBRIS

Associated space launch

Civilian navigation satellite equivalent to the purely military Parus

COSMOS 1000 was lifted into orbit during the mission ‘Kosmos-3M | Tsikada 4’, on board a Kosmos-3M space rocket.

The launch took place on March 31, 1978, 2:01 p.m. from 132/1 (132L).

For more information about the launch, click the button.

Launch to space Kosmos-3M | Tsikada 4
Kosmos-3M | Tsikada 4

Agency: N/A

Status: Launch Successful

Launch date: March 31, 1978, 2:01 p.m. UTC

Rocket: Kosmos-3M

Launch pad: 132/1 (132L)

Location: Plesetsk Cosmodrome, Russian Federation

...

Latest news about this satellite

There are no fresh news available about this satellite. Check back as we update our databases every day.


Newsletter sign-up

Weekly statistics, charts and insights to help you stay on top of the space industry.